Regional Weather Roundup
Issued by NWS Cleveland, OH

Home | Current Version | Previous Version | Text Only | Print | Product List | Glossary Off
Versions: 1 2 3 4 5 6 7 8 9 10 11 12 13 14 15 16 17 18 19 20 21 22 23 24 25 26 27 28 29 30 31 32 33 34 35 36 37 38 39 40 41 42 43 44 45 46 47 48 49 50

000
ASUS41 KCLE 220102
RWRCLE
OHIO REGIONAL WEATHER ROUNDUP
NATIONAL WEATHER SERVICE CLEVELAND, OH
900 PM EDT THU SEP 21 2017

NOTE: "FAIR" INDICATES FEW OR NO CLOUDS BELOW 12,000 FEET WITH NO
SIGNIFICANT WEATHER AND/OR OBSTRUCTIONS TO VISIBILITY.

OHZ001>008-015>018-024>027-034-035-043-044-220200-
   NORTHWEST OHIO

CITY           SKY/WX    TMP DP  RH WIND       PRES   REMARKS
DEFIANCE       CLOUDY    76  70  82 CALM      30.06R
FINDLAY        CLEAR     78  69  73 S5        30.06R
TOLEDO EXPRESS PTCLDY    80  75  84 CALM      30.06R
TOLEDO EXEC    CLEAR     77  72  84 SE5       30.07R
LIMA           CLEAR     74  69  85 S3        30.07R
$$

OHZ009>014-019>023-028>033-038-089-220200-
   NORTHEAST OHIO

CITY           SKY/WX    TMP DP  RH WIND       PRES   REMARKS
CLE-HOPKINS    PTCLDY    79  62  56 NE5       30.10R
CLE-LAKEFRONT  CLEAR     75  64  68 E5        30.07S
CUY CO. ARPT   PTCLDY    73  64  73 E5        30.10S
LORAIN-ELYRIA  CLEAR     71  62  73 CALM      30.09R
ASHTABULA      CLEAR     67  63  87 E3        30.12R
AKRON-CANTON   PTCLDY    75  64  68 N6        30.10R
WOOSTER        CLEAR     73  64  73 NE7       30.11R
MANSFIELD      PTCLDY    75  66  73 CALM      30.10R
YOUNGSTOWN     PTCLDY    72  64  76 NE10      30.11R
$$

OHZ042-051>053-060>062-070>072-077>081-220200-
  SOUTHWEST OHIO

CITY           SKY/WX    TMP DP  RH WIND       PRES   REMARKS
CINC-COVINGTON MOCLDY    77  71  82 CALM      30.06R
CINC-LUNKEN    PTCLDY    74  73  97 CALM      30.05R
HAMILTON       CLOUDY    75  72  90 CALM      30.06R
DAYTON         MOCLDY    75  69  81 CALM      30.08R
WRIGHT-PAT AFB NOT AVBL
DAYTON GENERAL PTCLDY    75  70  84 NE5       30.06R
WILMINGTON     CLEAR     72  69  90 E6        30.07R
$$

OHZ036-037-039>041-045>050-054>059-063>069-073>076-082>088-220200-
  CENTRAL AND SOUTHEAST OHIO

CITY           SKY/WX    TMP DP  RH WIND       PRES   REMARKS
COLUMBUS       PTCLDY    80  66  62 SE5       30.07R
OSU AIRPORT    MOCLDY    77  68  73 E5        30.07R
BOLTON FIELD   CLEAR     74  67  79 SE3       30.08R
RICKENBACK AFB PTCLDY    74  67  78 SE6       30.06S
NEWARK         CLEAR     70  67  90 W3        30.08R
MARION         CLEAR     76  65  68 SE6       30.08R
LANCASTER      CLEAR     68  66  93 CALM      30.08R
ZANESVILLE     CLEAR     73  66  78 CALM      30.08R
NEW PHILLY     NOT AVBL
$$




USA.gov is the U.S. government's official web portal to all federal, state and local government web resources and services.